C/2018 F1 ( Grauer )

Japanese version
Home page
Updated on May 21, 2018

---------------------------------------------------------------------

* Profile

Discovery Date March 17, 2018
Magnitude 19.1 mag
Discoverer A. D. Grauer (Mount Lemmon)

* Pictures

* Orbital Elements

Epoch 2018 Dec. 28.0 TT = JDT 2458480.5
T 2018 Dec. 14.07610 TT                                 MPCW
q   2.9931147            (2000.0)            P               Q
z  +0.0030888      Peri.   71.62201     -0.34605571     +0.93759600
 +/-0.0000184      Node   177.29042     -0.86156733     -0.33194142
e   0.9907549      Incl.   46.07171     +0.37141241     +0.10357910
From 70 observations 2017 Dec. 22-2018 Mar. 23, mean residual 0".4.

* Magnitudes Graph

        m1 = 10.5 + 5 log d + 10.0 log r

---------------------------------------------------------------------

The orbital elements are published on M.P.E.C. 2018-F152.
The magnitudes graphs are made with Comet for Windows.

---------------------------------------------------------------------

Copyright(C) Seiichi Yoshida (comet@aerith.net). All rights reserved.